User: anonymous   Login
Location: Caltech
(34.1382°N, 118.1253°W)
Time: 09:32:52
(UTC-08:00)
Language:

Cosmos 1980 Rocket - Orbit

View from above orbital plane
View from above orbital plane
View from above satellite
View from above satellite

Ground track
Ground track

The orbit data is extracted from the following two-line orbital elements,

1 19650U 88102B   17322.88344526 -.00000259 +00000-0 -10746-3 0  9994
2 19650 070.9997 049.8129 0016308 302.2029 057.7512 14.15761891497610
Epoch (UTC): 18 November 2017 21:12:09
Eccentricity: 0.0016308
inclination: 70.9997°
perigee height: 828 km
apogee height: 851 km
right ascension of ascending node: 49.8129°
argument of perigee: 302.2029°
revolutions per day: 14.15761891
mean anomaly at epoch: 57.7512°
orbit number at epoch: 49761

The dashed part of the orbit path shows where the satellite is in the earth's shadow,  

DLR